Time,TemperatureF,DewpointF,PressureIn,WindDirection,WindDirectionDegrees,WindSpeedMPH,WindSpeedGustMPH,Humidity,HourlyPrecipIn,Conditions,Clouds,dailyrainin,SoftwareType,DateUTC
2013-04-16 00:00:00,24.0,22.0,-100.00,SW,234,2.0,7.0,93,-99.99,,,-99.99,,2013-04-16 06:00:00,
2013-04-16 00:32:00,24.0,22.0,-100.00,SW,234,2.0,7.0,93,-99.99,,,-99.99,,2013-04-16 06:32:00,
2013-04-16 00:42:00,24.0,22.0,-100.00,SW,234,2.0,7.0,93,-99.99,,,-99.99,,2013-04-16 06:42:00,
2013-04-16 00:52:00,24.0,22.0,-100.00,SW,234,2.0,7.0,93,-99.99,,,-99.99,,2013-04-16 06:52:00,
2013-04-16 01:00:00,23.0,22.0,-100.00,SW,216,2.0,5.0,94,-99.99,,,-99.99,,2013-04-16 07:00:00,
2013-04-16 01:32:00,23.0,22.0,-100.00,SW,216,2.0,5.0,94,-99.99,,,-99.99,,2013-04-16 07:32:00,
2013-04-16 01:42:00,23.0,22.0,-100.00,SW,216,2.0,5.0,94,-99.99,,,-99.99,,2013-04-16 07:42:00,
2013-04-16 01:53:00,23.0,22.0,-100.00,SW,216,2.0,5.0,94,-99.99,,,-99.99,,2013-04-16 07:53:00,
2013-04-16 02:00:00,22.0,22.0,-100.00,SSW,209,1.0,4.0,100,-99.99,,,-99.99,,2013-04-16 08:00:00,
2013-04-16 02:32:00,22.0,22.0,-100.00,SSW,209,1.0,4.0,100,-99.99,,,-99.99,,2013-04-16 08:32:00,
2013-04-16 02:42:00,22.0,22.0,-100.00,SSW,209,1.0,4.0,100,-99.99,,,-99.99,,2013-04-16 08:42:00,
2013-04-16 02:52:00,22.0,22.0,-100.00,SSW,209,1.0,4.0,100,-99.99,,,-99.99,,2013-04-16 08:52:00,
2013-04-16 03:00:00,22.0,22.0,-100.00,SSW,212,2.0,5.0,99,-99.99,,,-99.99,,2013-04-16 09:00:00,
2013-04-16 03:33:00,22.0,22.0,-100.00,SSW,212,2.0,5.0,99,-99.99,,,-99.99,,2013-04-16 09:33:00,
2013-04-16 03:43:00,22.0,22.0,-100.00,SSW,212,2.0,5.0,99,-99.99,,,-99.99,,2013-04-16 09:43:00,
2013-04-16 03:53:00,22.0,22.0,-100.00,SSW,212,2.0,5.0,99,-99.99,,,-99.99,,2013-04-16 09:53:00,
2013-04-16 04:00:00,22.0,22.0,-100.00,SSW,205,2.0,7.0,98,-99.99,,,-99.99,,2013-04-16 10:00:00,
2013-04-16 04:33:00,22.0,22.0,-100.00,SSW,205,2.0,7.0,98,-99.99,,,-99.99,,2013-04-16 10:33:00,
2013-04-16 04:43:00,22.0,22.0,-100.00,SSW,205,2.0,7.0,98,-99.99,,,-99.99,,2013-04-16 10:43:00,
2013-04-16 04:53:00,22.0,22.0,-100.00,SSW,205,2.0,7.0,98,-99.99,,,-99.99,,2013-04-16 10:53:00,
2013-04-16 05:00:00,22.0,22.0,-100.00,North,357,2.0,5.0,100,-99.99,,,-99.99,,2013-04-16 11:00:00,
2013-04-16 05:32:00,22.0,22.0,-100.00,North,357,2.0,5.0,100,-99.99,,,-99.99,,2013-04-16 11:32:00,
2013-04-16 05:42:00,22.0,22.0,-100.00,North,357,2.0,5.0,100,-99.99,,,-99.99,,2013-04-16 11:42:00,
2013-04-16 05:52:00,22.0,22.0,-100.00,North,357,2.0,5.0,100,-99.99,,,-99.99,,2013-04-16 11:52:00,
2013-04-16 06:00:00,21.0,21.0,-100.00,NNW,328,1.0,4.0,100,-99.99,,,-99.99,,2013-04-16 12:00:00,
2013-04-16 06:32:00,21.0,21.0,-100.00,NNW,328,1.0,4.0,100,-99.99,,,-99.99,,2013-04-16 12:32:00,
2013-04-16 06:42:00,21.0,21.0,-100.00,NNW,328,1.0,4.0,100,-99.99,,,-99.99,,2013-04-16 12:42:00,
2013-04-16 06:52:00,21.0,21.0,-100.00,NNW,328,1.0,4.0,100,-99.99,,,-99.99,,2013-04-16 12:52:00,
2013-04-16 07:00:00,21.0,21.0,-100.00,NNW,338,2.0,7.0,100,-99.99,,,-99.99,,2013-04-16 13:00:00,
2013-04-16 07:32:00,21.0,21.0,-100.00,NNW,338,2.0,7.0,100,-99.99,,,-99.99,,2013-04-16 13:32:00,
2013-04-16 07:42:00,21.0,21.0,-100.00,NNW,338,2.0,7.0,100,-99.99,,,-99.99,,2013-04-16 13:42:00,
2013-04-16 07:52:00,21.0,21.0,-100.00,NNW,338,2.0,7.0,100,-99.99,,,-99.99,,2013-04-16 13:52:00,
2013-04-16 08:00:00,20.0,20.0,-100.00,North,357,2.0,11.0,100,-99.99,,,-99.99,,2013-04-16 14:00:00,
2013-04-16 08:32:00,20.0,20.0,-100.00,North,357,2.0,11.0,100,-99.99,,,-99.99,,2013-04-16 14:32:00,
2013-04-16 08:42:00,20.0,20.0,-100.00,North,357,2.0,11.0,100,-99.99,,,-99.99,,2013-04-16 14:42:00,
2013-04-16 08:52:00,20.0,20.0,-100.00,North,357,2.0,11.0,100,-99.99,,,-99.99,,2013-04-16 14:52:00,
2013-04-16 09:00:00,20.0,20.0,-100.00,NNW,336,3.0,10.0,100,-99.99,,,-99.99,,2013-04-16 15:00:00,
2013-04-16 09:33:00,20.0,20.0,-100.00,NNW,336,3.0,10.0,100,-99.99,,,-99.99,,2013-04-16 15:33:00,
2013-04-16 09:43:00,20.0,20.0,-100.00,NNW,336,3.0,10.0,100,-99.99,,,-99.99,,2013-04-16 15:43:00,
2013-04-16 09:53:00,20.0,20.0,-100.00,NNW,336,3.0,10.0,100,-99.99,,,-99.99,,2013-04-16 15:53:00,
2013-04-16 10:00:00,20.0,20.0,-100.00,NNW,333,5.0,14.0,98,-99.99,,,-99.99,,2013-04-16 16:00:00,
2013-04-16 10:33:00,20.0,20.0,-100.00,NNW,333,5.0,14.0,98,-99.99,,,-99.99,,2013-04-16 16:33:00,
2013-04-16 10:42:00,20.0,20.0,-100.00,NNW,333,5.0,14.0,98,-99.99,,,-99.99,,2013-04-16 16:42:00,
2013-04-16 10:52:00,20.0,20.0,-100.00,NNW,333,5.0,14.0,98,-99.99,,,-99.99,,2013-04-16 16:52:00,
2013-04-16 11:00:00,20.0,20.0,-100.00,NNW,333,5.0,15.0,98,-99.99,,,-99.99,,2013-04-16 17:00:00,
2013-04-16 11:33:00,20.0,20.0,-100.00,NNW,333,5.0,15.0,98,-99.99,,,-99.99,,2013-04-16 17:33:00,
2013-04-16 11:43:00,20.0,20.0,-100.00,NNW,333,5.0,15.0,98,-99.99,,,-99.99,,2013-04-16 17:43:00,
2013-04-16 11:53:00,20.0,20.0,-100.00,NNW,333,5.0,15.0,98,-99.99,,,-99.99,,2013-04-16 17:53:00,
2013-04-16 12:00:00,20.0,20.0,-100.00,NNW,331,5.0,13.0,96,-99.99,,,-99.99,,2013-04-16 18:00:00,
2013-04-16 12:32:00,20.0,20.0,-100.00,NNW,331,5.0,13.0,96,-99.99,,,-99.99,,2013-04-16 18:32:00,
2013-04-16 12:43:00,20.0,20.0,-100.00,NNW,331,5.0,13.0,96,-99.99,,,-99.99,,2013-04-16 18:43:00,
2013-04-16 12:52:00,20.0,20.0,-100.00,NNW,331,5.0,13.0,96,-99.99,,,-99.99,,2013-04-16 18:52:00,
2013-04-16 13:00:00,22.0,20.0,-100.00,NNW,329,5.0,12.0,92,-99.99,,,-99.99,,2013-04-16 19:00:00,
2013-04-16 13:32:00,22.0,20.0,-100.00,NNW,329,5.0,12.0,92,-99.99,,,-99.99,,2013-04-16 19:32:00,
2013-04-16 13:42:00,22.0,20.0,-100.00,NNW,329,5.0,12.0,92,-99.99,,,-99.99,,2013-04-16 19:42:00,
2013-04-16 13:52:00,22.0,20.0,-100.00,NNW,329,5.0,12.0,92,-99.99,,,-99.99,,2013-04-16 19:52:00,
2013-04-16 14:00:00,22.0,21.0,-100.00,NNE,25,4.0,10.0,95,-99.99,,,-99.99,,2013-04-16 20:00:00,
2013-04-16 14:32:00,22.0,21.0,-100.00,NNE,25,4.0,10.0,95,-99.99,,,-99.99,,2013-04-16 20:32:00,
2013-04-16 14:42:00,22.0,21.0,-100.00,NNE,25,4.0,10.0,95,-99.99,,,-99.99,,2013-04-16 20:42:00,
2013-04-16 14:52:00,22.0,21.0,-100.00,NNE,25,4.0,10.0,95,-99.99,,,-99.99,,2013-04-16 20:52:00,
2013-04-16 15:00:00,22.0,22.0,-100.00,NNE,33,4.0,11.0,99,-99.99,,,-99.99,,2013-04-16 21:00:00,
2013-04-16 15:33:00,22.0,22.0,-100.00,NNE,33,4.0,11.0,99,-99.99,,,-99.99,,2013-04-16 21:33:00,
2013-04-16 15:43:00,22.0,22.0,-100.00,NNE,33,4.0,11.0,99,-99.99,,,-99.99,,2013-04-16 21:43:00,
2013-04-16 15:53:00,22.0,22.0,-100.00,NNE,33,4.0,11.0,99,-99.99,,,-99.99,,2013-04-16 21:53:00,
2013-04-16 16:00:00,23.0,20.0,-100.00,NNW,335,3.0,9.0,88,-99.99,,,-99.99,,2013-04-16 22:00:00,
2013-04-16 16:33:00,23.0,20.0,-100.00,NNW,335,3.0,9.0,88,-99.99,,,-99.99,,2013-04-16 22:33:00,
2013-04-16 16:43:00,23.0,20.0,-100.00,NNW,335,3.0,9.0,88,-99.99,,,-99.99,,2013-04-16 22:43:00,
2013-04-16 16:52:00,23.0,20.0,-100.00,NNW,335,3.0,9.0,88,-99.99,,,-99.99,,2013-04-16 22:52:00,
2013-04-16 17:00:00,23.0,20.0,-100.00,NNW,334,4.0,12.0,89,-99.99,,,-99.99,,2013-04-16 23:00:00,
2013-04-16 17:32:00,23.0,20.0,-100.00,NNW,334,4.0,12.0,89,-99.99,,,-99.99,,2013-04-16 23:32:00,
2013-04-16 17:43:00,23.0,20.0,-100.00,NNW,334,4.0,12.0,89,-99.99,,,-99.99,,2013-04-16 23:43:00,
2013-04-16 17:52:00,23.0,20.0,-100.00,NNW,334,4.0,12.0,89,-99.99,,,-99.99,,2013-04-16 23:52:00,
2013-04-16 18:00:00,23.0,20.0,-100.00,NNW,347,3.0,8.0,90,-99.99,,,-99.99,,2013-04-17 00:00:00,
2013-04-16 18:32:00,23.0,20.0,-100.00,NNW,347,3.0,8.0,90,-99.99,,,-99.99,,2013-04-17 00:32:00,
2013-04-16 18:42:00,23.0,20.0,-100.00,NNW,347,3.0,8.0,90,-99.99,,,-99.99,,2013-04-17 00:42:00,
2013-04-16 18:52:00,23.0,20.0,-100.00,NNW,347,3.0,8.0,90,-99.99,,,-99.99,,2013-04-17 00:52:00,
2013-04-16 19:00:00,22.0,19.0,-100.00,NE,48,3.0,8.0,89,-99.99,,,-99.99,,2013-04-17 01:00:00,
2013-04-16 19:32:00,22.0,19.0,-100.00,NE,48,3.0,8.0,89,-99.99,,,-99.99,,2013-04-17 01:32:00,
2013-04-16 19:42:00,22.0,19.0,-100.00,NE,48,3.0,8.0,89,-99.99,,,-99.99,,2013-04-17 01:42:00,
2013-04-16 19:52:00,22.0,19.0,-100.00,NE,48,3.0,8.0,89,-99.99,,,-99.99,,2013-04-17 01:52:00,
2013-04-16 20:00:00,21.0,17.0,-100.00,NE,54,3.0,9.0,84,-99.99,,,-99.99,,2013-04-17 02:00:00,
2013-04-16 20:32:00,21.0,17.0,-100.00,NE,54,3.0,9.0,84,-99.99,,,-99.99,,2013-04-17 02:32:00,
2013-04-16 20:42:00,21.0,17.0,-100.00,NE,54,3.0,9.0,84,-99.99,,,-99.99,,2013-04-17 02:42:00,
2013-04-16 20:52:00,21.0,17.0,-100.00,NE,54,3.0,9.0,84,-99.99,,,-99.99,,2013-04-17 02:52:00,
2013-04-16 21:00:00,19.0,15.0,-100.00,NNW,334,2.0,7.0,86,-99.99,,,-99.99,,2013-04-17 03:00:00,
2013-04-16 21:33:00,19.0,15.0,-100.00,NNW,334,2.0,7.0,86,-99.99,,,-99.99,,2013-04-17 03:33:00,
2013-04-16 21:42:00,19.0,15.0,-100.00,NNW,334,2.0,7.0,86,-99.99,,,-99.99,,2013-04-17 03:42:00,
2013-04-16 21:53:00,19.0,15.0,-100.00,NNW,334,2.0,7.0,86,-99.99,,,-99.99,,2013-04-17 03:53:00,
2013-04-16 22:00:00,18.0,14.0,-100.00,NW,320,2.0,6.0,85,-99.99,,,-99.99,,2013-04-17 04:00:00,
2013-04-16 22:33:00,18.0,14.0,-100.00,NW,320,2.0,6.0,85,-99.99,,,-99.99,,2013-04-17 04:33:00,
2013-04-16 22:42:00,18.0,14.0,-100.00,NW,320,2.0,6.0,85,-99.99,,,-99.99,,2013-04-17 04:42:00,
2013-04-16 22:52:00,18.0,14.0,-100.00,NW,320,2.0,6.0,85,-99.99,,,-99.99,,2013-04-17 04:52:00,
2013-04-16 23:00:00,18.0,12.0,-100.00,NNW,334,3.0,9.0,79,-99.99,,,-99.99,,2013-04-17 05:00:00,
2013-04-16 23:32:00,18.0,12.0,-100.00,NNW,334,3.0,9.0,79,-99.99,,,-99.99,,2013-04-17 05:32:00,
2013-04-16 23:43:00,18.0,12.0,-100.00,NNW,334,3.0,9.0,79,-99.99,,,-99.99,,2013-04-17 05:43:00,
2013-04-16 23:52:00,18.0,12.0,-100.00,NNW,334,3.0,9.0,79,-99.99,,,-99.99,,2013-04-17 05:52:00,